This demonstration page uses our WeatherBlox Daily Observations layout. Learn more.

39.51506, -84.39828

Hourly Observations for November 15, 2018

Temp ( °F °C ) Dew Point ( °F °C ) Humidity (%) Winds ( mph kmh ) Pressure ( in mb ) Visibility ( mi km ) Precip ( " mm )
12:15 am 00:15 Cloudy with Light Snow 30 -0.9 26 -3.4 83 83 NE 9 15 30.33 1027 10 16.0934 0.01 0.254
12:35 am 00:35 Cloudy with Light Snow 30 -0.9 26 -3.3 84 84 NE 10 17 30.33 1027 10 16.0934 0.01 0.254
12:55 am 00:55 Cloudy with Light Snow 31 -0.7 27 -2.9 85 85 NE 14 22 30.3 1026 7 11.26538 0.02 0.508
1:15 am 01:15 Cloudy with Light Snow 31 -0.7 27 -2.6 87 87 NE 13 20 30.3 1026 5 8.0467 0.02 0.508
1:35 am 01:35 Cloudy with Light Snow 31 -0.6 28 -2.3 88 88 NE 14 22 30.3 1026 5 8.0467 0.05 1.27
1:55 am 01:55 Cloudy with Light Snow 31 -0.6 28 -2.1 90 90 NE 12 19 30.27 1025 4 6.43736 0.08 2.032
2:15 am 02:15 Cloudy with Light Snow 31 -0.5 29 -1.8 91 91 NE 9 15 30.24 1024 3 4.82802 0.04 1.016
2:35 am 02:35 Cloudy with Light Snow 31 -0.4 29 -1.8 90 90 ENE 7 11 30.24 1024 4 6.43736 0.07 1.778
2:55 am 02:55 Cloudy with Light Snow 31 -0.3 29 -1.5 92 92 E 3 6 30.27 1025 3 4.82802 0.11 2.794
3:15 am 03:15 Cloudy with Light Snow 31 -0.3 29 -1.4 92 92 Calm 30.27 1025 3 4.82802 0.05 1.27
3:35 am 03:35 Cloudy with Light Snow 32 -0.2 30 -1.3 92 92 ENE 5 7 30.24 1024 4 6.43736 0.09 2.286
3:55 am 03:55 Cloudy with Light Rain 32 -0.2 30 -1.2 93 93 ENE 5 7 30.24 1024 5 8.0467 0.12 3.048
4:15 am 04:15 Cloudy with Light Rain 32 -0.1 30 -1.1 93 93 NE 5 7 30.21 1023 5 8.0467 0.02 0.508
4:35 am 04:35 Cloudy with Rain 32 0 30 -0.9 94 94 ENE 5 7 30.21 1023 5 8.0467 0.05 1.27
4:55 am 04:55 Cloudy with Light Wintry Mix 32 0 30 -1 93 93 E 5 7 30.21 1023 4 6.43736 0.09 2.286
5:15 am 05:15 Cloudy with Light Rain 32 0.1 31 -0.8 94 94 E 3 6 30.18 1022 5 8.0467 0.01 0.254
5:35 am 05:35 Cloudy with Light Wintry Mix 32 0.1 31 -0.8 94 94 E 3 6 30.18 1022 7 11.26538 0.03 0.762
5:55 am 05:55 Cloudy with Light Wintry Mix 32 0.2 31 -0.6 94 94 Calm 30.18 1022 5 8.0467 0.05 1.27
6:15 am 06:15 undefined N/A N/A N/A undefined N/A N/A N/A 0.01 0.254
6:35 am 06:35 undefined N/A N/A N/A undefined N/A N/A N/A 0.01 0.254
6:55 am 06:55 undefined N/A N/A N/A undefined N/A N/A N/A 0.01 0.254
7:15 am 07:15 undefined N/A N/A N/A undefined N/A N/A N/A 0 0
7:35 am 07:35 undefined N/A N/A N/A undefined N/A N/A N/A 0 0
7:55 am 07:55 undefined N/A N/A N/A undefined N/A N/A N/A 0 0
8:15 am 08:15 undefined N/A N/A N/A undefined N/A N/A N/A 0 0
8:35 am 08:35 undefined N/A N/A N/A undefined N/A N/A N/A 0 0
11:35 am 11:35 undefined 33 0.6 32 0.2 97 97 Calm 30.09 1019 N/A 0 0
11:55 am 11:55 Cloudy with Light Rain 33 0.7 33 0.4 98 98 Calm 30.09 1019 5 8.0467 0.01 0.254
12:15 pm 12:15 Cloudy with Mist and Fog 33 0.8 33 0.5 98 98 Calm 30.06 1018 2 3.21868 0 0
12:35 pm 12:35 Cloudy with Mist and Fog 34 1 33 0.6 97 97 Calm 30.06 1018 2.5 4.02335 0 0
12:55 pm 12:55 Cloudy with Light Rain 34 1 33 0.6 97 97 Calm 30.06 1018 3.5 5.63269 0 0
1:10 pm 13:10 Cloudy with Light Rain 34 1.1 33 0.7 97 97 Calm 30.03 1017 5 8.0467 0 0
1:35 pm 13:35 Cloudy with Light Rain 34 1 33 0.6 97 97 WSW 3 6 30.03 1017 3.5 5.63269 0 0
1:55 pm 13:55 Cloudy with Mist and Fog 34 1.2 34 0.9 98 98 Calm 30.03 1017 1.75 2.816345 0 0
2:15 pm 14:15 Cloudy with Mist and Fog 34 1.3 34 1.1 99 99 WSW 3 6 30 1016 1.5 2.41401 0 0
2:35 pm 14:35 Cloudy with Mist and Fog 35 1.5 34 1.2 98 98 SW 3 6 30 1016 3.5 5.63269 0 0
2:55 pm 14:55 Cloudy with Mist and Fog 35 1.6 34 1.2 97 97 W 3 6 30 1016 5 8.0467 0 0
3:15 pm 15:15 Cloudy 35 1.5 34 0.9 96 96 WSW 6 9 30 1016 7 11.26538 0 0
3:35 pm 15:35 Cloudy 35 1.4 33 0.8 96 96 WSW 6 9 30 1016 7 11.26538 0 0
3:55 pm 15:55 Cloudy with Light Rain 35 1.4 34 0.9 97 97 SW 3 6 30 1016 7 11.26538 0 0
4:15 pm 16:15 Cloudy 35 1.4 33 0.8 96 96 SW 3 6 30 1016 7 11.26538 0 0
4:35 pm 16:35 Cloudy with Light Rain 35 1.4 33 0.8 96 96 WSW 5 7 30 1016 7 11.26538 0 0
4:55 pm 16:55 Cloudy with Light Snow 34 1 33 0.5 97 97 WSW 6 9 30 1016 4 6.43736 0 0
5:10 pm 17:10 Cloudy with Light Snow 33 0.4 32 0 97 97 SW 3 6 30 1016 2 3.21868 0 0
5:35 pm 17:35 Cloudy with Light Snow 32 0.2 32 -0.1 98 98 SSW 5 7 30 1016 1.25 2.011675 0.01 0.254
5:55 pm 17:55 Cloudy with Light Snow 32 0.2 32 0 99 99 SW 3 6 30 1016 2 3.21868 0.01 0.254
6:15 pm 18:15 Cloudy with Light Snow 33 0.3 32 0.1 99 99 SSW 3 6 30 1016 3.5 5.63269 0 0
6:35 pm 18:35 Cloudy with Light Wintry Mix 33 0.3 32 0 98 98 SSW 5 7 30 1016 5 8.0467 0.01 0.254
6:55 pm 18:55 Cloudy with Light Snow 33 0.3 32 0 98 98 Calm 30 1016 5 8.0467 0.01 0.254
7:15 pm 19:15 Cloudy with Mist and Fog 33 0.4 32 0.1 98 98 S 3 6 30 1016 5 8.0467 0 0
7:35 pm 19:35 Cloudy 33 0.5 32 0 96 96 WSW 5 7 30 1016 7 11.26538 0 0
7:55 pm 19:55 Cloudy with Light Rain 33 0.5 32 0.1 97 97 SSW 6 9 30 1016 7 11.26538 0 0
8:15 pm 20:15 Cloudy with Light Snow 33 0.5 32 -0.1 96 96 SW 3 6 30 1016 5 8.0467 0 0
8:35 pm 20:35 Cloudy 33 0.5 32 0 96 96 SSW 6 9 30 1016 7 11.26538 0 0
8:55 pm 20:55 Cloudy 33 0.5 32 0 96 96 SSW 7 11 30.03 1017 7 11.26538 0 0
9:15 pm 21:15 Cloudy 33 0.6 32 -0.1 95 95 SW 7 11 30.03 1017 7 11.26538 0 0
9:35 pm 21:35 Cloudy 33 0.6 32 -0.2 94 94 SW 8 13 30.03 1017 10 16.0934 0 0
9:55 pm 21:55 Cloudy 33 0.7 32 -0.1 94 94 SW 8 13 30.03 1017 10 16.0934 0 0
10:15 pm 22:15 Cloudy 33 0.7 32 -0.2 94 94 SW 9 15 30.03 1017 10 16.0934 0 0
10:35 pm 22:35 Cloudy 33 0.7 32 -0.2 94 94 SW 10 17 30.03 1017 10 16.0934 0 0
10:55 pm 22:55 Cloudy 33 0.6 31 -0.3 94 94 SW 8 13 30.03 1017 10 16.0934 0 0
11:15 pm 23:15 Cloudy 33 0.5 31 -0.4 94 94 SW 14 22 30.03 1017 10 16.0934 0 0
11:35 pm 23:35 Cloudy with Mist and Fog 33 0.4 31 -0.3 95 95 SW 10 17 30.03 1017 5 8.0467 0 0
11:55 pm 23:55 Cloudy with Mist and Fog 33 0.4 31 -0.3 95 95 SW 9 15 30.03 1017 7 11.26538 0 0

Powered by AerisWeather